Regional Weather Roundup
Issued by NWS

Home | Current Version | Previous Version | Graphics & Text | Print | Product List | Glossary On
Versions: 1 2 3 4 5 6 7 8 9 10 11 12 13 14 15 16 17 18 19 20 21 22 23 24 25 26 27 28 29 30 31 32 33 34 35 36 37 38 39 40 41 42 43 44 45 46 47 48 49 50
000
ASUS43 KBIS 250302
RWRND

NORTH DAKOTA REGIONAL WEATHER ROUNDUP
NATIONAL WEATHER SERVICE BISMARCK ND
1000 PM CDT MON JUL 24 2017

NOTE: "FAIR" INDICATES FEW OR NO CLOUDS BELOW 12,000 FEET WITH NO
SIGNIFICANT WEATHER AND/OR OBSTRUCTIONS TO VISIBILITY.


NDZ001>003-009>011-017-250400-
NORTHWEST NORTH DAKOTA

CITY           SKY/WX    TMP DP  RH WIND       PRES   REMARKS
WILLISTON      CLOUDY    81  46  29 N10       29.83R
MINOT          CLEAR     80  62  54 NW8       29.78R
MINOT AFB      PTCLDY    76  60  55 NW13      29.77R
$$

NDZ018>021-031>035-040>046-250400-
SOUTHWEST NORTH DAKOTA

CITY           SKY/WX    TMP DP  RH WIND       PRES   REMARKS
BISMARCK       CLOUDY    76  67  73 SE10      29.82R
DICKINSON      CLEAR     82  56  40 N12       29.82R
GARRISON         N/A     79  67  66 S12       29.76R
HETTINGER ARPT CLEAR     79  64  60 E10       29.84R
$$

NDZ004>008-012>016-024-026-027-054-250400-
NORTHEAST NORTH DAKOTA

CITY           SKY/WX    TMP DP  RH WIND       PRES   REMARKS
GRAND FORKS    PTCLDY    72  65  78 S10       29.87R
GRND FRKS AFB  CLEAR     70  64  80 SE10      29.87S
DEVILS LAKE    CLOUDY    74  65  73 SE15G22   29.81F
$$

NDZ022-023-025-028>030-036>039-047>053-250400-
SOUTHEAST NORTH DAKOTA

CITY           SKY/WX    TMP DP  RH WIND       PRES   REMARKS
FARGO          CLEAR     72  63  73 SE12G21   29.89
JAMESTOWN      CLEAR     72  64  76 SE13      29.85S
$$




USA.gov is the U.S. government's official web portal to all federal, state and local government web resources and services.